Location: Sternwarte ZA, Rosenfeld-Brittheim
(48.2889°N, 8.6789°E)
Time: 04:39:45
(UTC+02:00)

ISS - Pass Details

Date: 17 September 2020
Orbit: 419 x 420 km, 51.6° (Epoch: 21 September)

Event Time Altitude Azimuth Distance (km) Brightness Sun altitude
Rises 20:48:10 0° 208° (SSW) 2,354 0.2 -13.1°
Reaches altitude 10° 20:50:33 10° 193° (SSW) 1,494 -1.0 -13.5°
Enters shadow 20:53:02 22° 145° (SE) 980 -2.4 -13.9°
